STARLINK-3705, 52103

Orbit data source: Space-Track

STARLINK-3705, 52103 is a payload satellite owned by SpaceX/Seattle (US) in LEO that was launched on Sat, 19 Mar 2022 UTC via an FALCON 9 launch vehicle from the Air Force Eastern Test Range (AFETR). Payload-class satellites include a variety of spacecraft equipped with specific instruments for various scientific and technological missions. These include communications satellites like Starlink; space stations such as the ISS; scientific satellites like the Hubble; Earth observation satellites from companies like Planet Labs, Umbra, and HawkEye 360; GPS; miniature CubeSats for education and research; and military/defense satellites.

Loading next visibility...
Identifier
52103, 2022-029R
Orbit
LEO
Country
Flag of USUS
Related business
Manufacturer
SpaceX/Seattle
Mission
Operational Commercial Communications
Bus & Motor
STARLINK, Unknown motor
Mass
297 kg wet, ~275 kg dry
Launch date (UTC)
2022-03-19 (4 years ago)
Launch vehicle
FALCON 9
Launch site
Air Force Eastern Test Range (AFETR)
Object type
Payload
Rocket body
Debris
Shape & HBR
Box + 1 Pan, 10.1 m
Radar Cross Section
13.562 m², Large (>1 m²)

Expand to show TLE details & history
Last TLE update: 2 days ago

TLE from 2 days ago
0 STARLINK-3705
1 52103U 22029R   26171.17703724  .00000688  00000-0  61318-4 0  9999
2 52103  53.1605 338.9220 0001224 105.6112 254.5014 15.08834591236258
Epoch: 2026-06-20T04:14Z
TLE epoch observation values (Epoch: 2026-06-20T04:14:56.017Z)
Latitude
-0.00007°
Longitude
6.79314°
Altitude
540.878 km
Speed
7.593 km/s
True Right ascension
22h 35m 41s
True Declination
0° 00' 00"
Sunlit
Object was in daylight at epoch
Visualization orbit readout
Latitude
Unknown
Longitude
Unknown
Altitude
Unknown
Speed
Unknown
Apparent Right ascension
Unknown
Apparent Declination
Unknown
Sunlit
N/A
Visualization observer readout
Local Sidereal Time
21:25:46
Azimuth
Unknown
Elevation
Unknown
Doppler factor
Unknown
Orbital elements
Apogee altitude
540.861 km
Perigee altitude
539.167 km
Semi-major axis
6,918.151 km
Eccentricity
0.00012
Inclination
53.1605°
RAAN
338.922°
Arg. of periapsis
105.6112°
True anomaly
254.48788°
Mean anomaly
254.5014°
Eccentric anomaly
254.49464°
Mean motion
3.77188 °/min
Orbital period
95.44 mins
BSTAR
0.000061318
Loading maneuver chart data...
Computing Atmospheric mass density...
Loading historical data...
Loading historical data...
Loading historical data...
Loading historical data...
Loading historical data...
Loading historical data...
Loading historical data...

Documentation

Showing up to 5 results
|